User: anonymous   Login
Location: Unspecified
(0.0000°N, 0.0000°E)
Time: 16:39:16
(UTC+02:00)
Language:

NOAA 12 - Orbit

View from above orbital plane
View from above orbital plane
View from above satellite
View from above satellite

Ground track
Ground track

The orbit data is extracted from the following two-line orbital elements,

1 21263U 91032A   15241.20669693  .00000033  00000-0  32312-4 0  9994
2 21263 098.6259 267.0254 0014555 045.7859 019.0186 14.25774402262976
Epoch (UTC): 29 August 2015 04:57:38
Eccentricity: 0.0014555
inclination: 98.6259°
perigee height: 795 km
apogee height: 816 km
right ascension of ascending node: 267.0254°
argument of perigee: 45.7859°
revolutions per day: 14.25774402
mean anomaly at epoch: 19.0186°
orbit number at epoch: 26297

The dashed part of the orbit path shows where the satellite is in the earth's shadow,  

DLR